sat.trackr.live / text

‹ back to catalog

STARLINK-4103

NORAD 53141 · 2022-083K

PAYLOAD ACTIVE UNKNOWN

§ Identity

Operator
Country
US
Launch date
2022-07-17
Launch site
AFETR
Launch vehicle
Mass (kg)
RCS (m²)

Purposes: comms

External: N2YO · Heavens-Above · Gunter

§ Orbital elements

Epoch: 2026-09-20T00:03:27.652032Z

Period
93.85 min
Inclination
53.1613°
Eccentricity
0.0000849
Mean motion
15.34390001 rev/d
Perigee alt
462.2 km
Apogee alt
463.3 km
Semi-major
6,840.9 km
B*
4.9105e-6
RAAN
5.8219°
Arg perigee
84.4511°
Mean anomaly
275.6588°
Rev number
23,077

§ Raw data

STARLINK-41031 53141U 22083K   26263.00240338 -.00000210  00000+0  49105-5 0  99952 53141  53.1613   5.8219 0000849  84.4511 275.6588 15.34390001230770

JSON: /api/v1/satellites/53141 · /tle

For live sub-satellite position, see the globe view (requires WebGL).

§ Visibility from observer

Set your observer location to see the next 7 days of passes ≥ 10°. The values pass through the URL so the page stays shareable.

No JS? Fill the form by hand. The geolocation button needs JavaScript.